| time (UTC) | temp C | wind direction | speed KPH | gust KPH | rain 1hr cm | rain 24hr cm | rain mn cm | humidity % | barometer mb |
| 20260508102024 | 12 | 297 | 12.9 | 17.7 | 0.00 | 0.00 | 0.00 | 31 | 1026.8 |
| 20260508101124 | 12 | 299 | 11.3 | 20.9 | 0.00 | 0.00 | 0.00 | 32 | 1026.5 |
| 20260508100224 | 11 | 305 | 16.1 | 22.5 | 0.00 | 0.00 | 0.00 | 31 | 1027.0 |
| 20260508095537 | 11 | 313 | 16.1 | 24.1 | 0.00 | 0.00 | 0.00 | 32 | 1026.8 |
| 20260508094424 | 11 | 305 | 11.3 | 17.7 | 0.00 | 0.00 | 0.00 | 32 | 1026.8 |
| 20260508093737 | 11 | 291 | 11.3 | 17.7 | 0.00 | 0.00 | 0.00 | 32 | 1026.8 |
| 20260508092834 | 12 | 298 | 9.7 | 17.7 | 0.00 | 0.00 | 0.00 | 32 | 1026.6 |
| 20260508091724 | 11 | 313 | 14.5 | 24.1 | 0.00 | 0.00 | 0.00 | 33 | 1026.6 |
| 20260508090824 | 11 | 307 | 11.3 | 24.1 | 0.00 | 0.00 | 0.00 | 31 | 1026.5 |
| 20260508085924 | 11 | 315 | 14.5 | 17.7 | 0.00 | 0.00 | 0.00 | 33 | 1026.6 |
| 20260508085024 | 11 | 303 | 14.5 | 22.5 | 0.00 | 0.00 | 0.00 | 32 | 1026.4 |
| 20260508084336 | 11 | 324 | 12.9 | 17.7 | 0.00 | 0.00 | 0.00 | 33 | 1026.5 |
| 20260508083224 | 11 | 328 | 12.9 | 17.7 | 0.00 | 0.00 | 0.00 | 33 | 1026.4 |
| 20260508082324 | 11 | 317 | 12.9 | 17.7 | 0.00 | 0.00 | 0.00 | 34 | 1026.6 |
| 20260508081424 | 11 | 307 | 16.1 | 20.9 | 0.00 | 0.00 | 0.00 | 33 | 1026.2 |
| 20260508080524 | 10 | 292 | 11.3 | 20.9 | 0.00 | 0.00 | 0.00 | 33 | 1026.3 |
| 20260508075624 | 10 | 313 | 11.3 | 17.7 | 0.00 | 0.00 | 0.00 | 34 | 1026.3 |
| 20260508074724 | 11 | 335 | 11.3 | 20.9 | 0.00 | 0.00 | 0.00 | 37 | 1026.2 |
| 20260508073824 | 10 | 301 | 11.3 | 20.9 | 0.00 | 0.00 | 0.00 | 45 | 1026.2 |
| 20260508073134 | 9 | 292 | 9.7 | 17.7 | 0.00 | 0.00 | 0.00 | 49 | 1026.2 |
| 20260508072024 | 10 | 306 | 12.9 | 20.9 | 0.00 | 0.00 | 0.00 | 47 | 1025.8 |
| 20260508071124 | 10 | 286 | 8.0 | 14.5 | 0.00 | 0.00 | 0.00 | 52 | 1026.0 |
| 20260508070224 | 9 | 288 | 8.0 | 12.9 | 0.00 | 0.00 | 0.00 | 56 | 1025.7 |
| 20260508065324 | 8 | 306 | 8.0 | 11.3 | 0.00 | 0.00 | 0.00 | 58 | 1025.9 |
| 20260508064424 | 8 | 287 | 8.0 | 12.9 | 0.00 | 0.00 | 0.00 | 60 | 1025.7 |
| 20260508063524 | 8 | 312 | 6.4 | 9.7 | 0.00 | 0.00 | 0.00 | 61 | 1025.5 |
| 20260508062624 | 8 | 305 | 6.4 | 9.7 | 0.00 | 0.00 | 0.00 | 68 | 1025.6 |
| 20260508061724 | 7 | 299 | 4.8 | 6.4 | 0.00 | 0.00 | 0.00 | 68 | 1025.4 |
| 20260508060824 | 7 | 297 | 4.8 | 6.4 | 0.00 | 0.00 | 0.00 | 71 | 1025.4 |
| 20260508055924 | 7 | 291 | 6.4 | 12.9 | 0.00 | 0.00 | 0.00 | 72 | 1025.3 |
| 20260508055024 | 7 | 258 | 3.2 | 6.4 | 0.00 | 0.00 | 0.00 | 74 | 1025.3 |
| 20260508054124 | 7 | 276 | 4.8 | 9.7 | 0.00 | 0.00 | 0.00 | 74 | 1025.0 |
| 20260508053435 | 6 | 283 | 6.4 | 9.7 | 0.00 | 0.00 | 0.00 | 76 | 1025.4 |
| 20260508052324 | 5 | 282 | 4.8 | 6.4 | 0.00 | 0.00 | 0.00 | 78 | 1025.0 |
| 20260508051424 | 5 | 292 | 4.8 | 9.7 | 0.00 | 0.00 | 0.00 | 80 | 1024.7 |
| 20260508050524 | 5 | 273 | 4.8 | 9.7 | 0.00 | 0.00 | 0.00 | 81 | 1024.6 |
| 20260508045624 | 4 | 254 | 3.2 | 9.7 | 0.00 | 0.00 | 0.00 | 81 | 1024.7 |
| 20260508044724 | 4 | 249 | 4.8 | 6.4 | 0.00 | 0.00 | 0.00 | 83 | 1024.5 |
| 20260508043824 | 4 | 259 | 6.4 | 9.7 | 0.00 | 0.00 | 0.00 | 84 | 1024.4 |
| 20260508043136 | 3 | 262 | 4.8 | 9.7 | 0.00 | 0.00 | 0.00 | 84 | 1024.4 |
| 20260508042024 | 3 | 252 | 3.2 | 6.4 | 0.00 | 0.00 | 0.00 | 85 | 1024.4 |
| 20260508041124 | 3 | 247 | 1.6 | 3.2 | 0.00 | 0.00 | 0.00 | 85 | 1023.9 |
| 20260508040224 | 3 | 0 | 0.0 | 0.0 | 0.00 | 0.00 | 0.00 | 84 | 1024.1 |
| 20260508035324 | 2 | 0 | 0.0 | 0.0 | 0.00 | 0.00 | 0.00 | 85 | 1024.1 |
| 20260508034633 | 2 | 0 | 0.0 | 0.0 | 0.00 | 0.00 | 0.00 | 86 | 1024.0 |
| 20260508033524 | 1 | 0 | 0.0 | 0.0 | 0.00 | 0.00 | 0.00 | 88 | 1023.6 |
| 20260508032624 | 0 | 0 | 0.0 | 0.0 | 0.00 | 0.00 | 0.00 | 91 | 1023.8 |
| 20260508031724 | -1 | 0 | 0.0 | 0.0 | 0.00 | 0.00 | 0.00 | 91 | 1023.9 |
| 20260508030824 | -1 | 0 | 0.0 | 0.0 | 0.00 | 0.00 | 0.00 | 91 | 1023.7 |
| 20260508025924 | -1 | 0 | 0.0 | 0.0 | 0.00 | 0.00 | 0.00 | 90 | 1023.5 |
| 20260508025024 | -1 | 0 | 0.0 | 0.0 | 0.00 | 0.00 | 0.00 | 91 | 1023.5 |
| 20260508024334 | -1 | 0 | 0.0 | 0.0 | 0.00 | 0.00 | 0.00 | 91 | 1023.5 |
| 20260508023224 | -1 | 0 | 0.0 | 0.0 | 0.00 | 0.00 | 0.00 | 92 | 1023.4 |
| 20260508022324 | -2 | 0 | 0.0 | 0.0 | 0.00 | 0.00 | 0.00 | 91 | 1023.5 |
| 20260508021424 | -1 | 0 | 0.0 | 0.0 | 0.00 | 0.00 | 0.00 | 91 | 1023.1 |
| 20260508020524 | -1 | 0 | 0.0 | 0.0 | 0.00 | 0.00 | 0.00 | 91 | 1023.3 |
| 20260508015624 | -1 | 0 | 0.0 | 0.0 | 0.00 | 0.00 | 0.00 | 91 | 1023.1 |
| 20260508014724 | -1 | 0 | 0.0 | 0.0 | 0.00 | 0.00 | 0.00 | 91 | 1023.1 |
| 20260508013824 | -1 | 0 | 0.0 | 0.0 | 0.00 | 0.00 | 0.00 | 91 | 1022.8 |
| 20260508012924 | -1 | 0 | 0.0 | 0.0 | 0.00 | 0.00 | 0.00 | 90 | 1023.0 |
| 20260508012024 | 0 | 0 | 0.0 | 0.0 | 0.00 | 0.00 | 0.00 | 89 | 1022.6 |
| 20260508011124 | 0 | 247 | 0.0 | 3.2 | 0.00 | 0.00 | 0.00 | 89 | 1022.4 |
| 20260508010435 | 0 | 247 | 0.0 | 3.2 | 0.00 | 0.00 | 0.00 | 88 | 1022.4 |
| 20260508005324 | 1 | 249 | 3.2 | 6.4 | 0.00 | 0.00 | 0.00 | 87 | 1022.5 |
| 20260508004424 | 1 | 249 | 3.2 | 3.2 | 0.00 | 0.00 | 0.00 | 87 | 1022.4 |
| 20260508003524 | 1 | 251 | 3.2 | 6.4 | 0.00 | 0.00 | 0.00 | 87 | 1022.3 |
| 20260508002624 | 1 | 256 | 4.8 | 6.4 | 0.00 | 0.00 | 0.00 | 86 | 1022.3 |
| 20260508001724 | 1 | 251 | 1.6 | 6.4 | 0.00 | 0.00 | 0.00 | 86 | 1022.0 |
| 20260508000824 | 1 | 263 | 1.6 | 3.2 | 0.00 | 0.00 | 0.00 | 85 | 1022.0 |
| 20260507235924 | 1 | 270 | 1.6 | 3.2 | 0.00 | 0.00 | 0.00 | 85 | 1022.0 |
| 20260507235024 | 1 | 0 | 0.0 | 0.0 | 0.00 | 0.00 | 0.00 | 84 | 1022.0 |
| 20260507234336 | 1 | 270 | 1.6 | 6.4 | 0.00 | 0.00 | 0.00 | 84 | 1021.9 |
| 20260507233224 | 1 | 268 | 3.2 | 6.4 | 0.00 | 0.00 | 0.00 | 83 | 1021.6 |
| 20260507232324 | 2 | 288 | 4.8 | 6.4 | 0.00 | 0.00 | 0.00 | 81 | 1021.6 |
| 20260507231424 | 2 | 286 | 6.4 | 11.3 | 0.00 | 0.00 | 0.00 | 80 | 1021.6 |
| 20260507230524 | 2 | 276 | 3.2 | 6.4 | 0.00 | 0.00 | 0.00 | 80 | 1021.4 |
| 20260507225624 | 2 | 274 | 4.8 | 6.4 | 0.00 | 0.00 | 0.00 | 79 | 1021.5 |
| 20260507224935 | 2 | 264 | 4.8 | 6.4 | 0.00 | 0.00 | 0.00 | 79 | 1021.2 |
| 20260507224038 | 2 | 270 | 3.2 | 6.4 | 0.00 | 0.00 | 0.00 | 78 | 1021.4 |
| 20260507223135 | 2 | 271 | 4.8 | 6.4 | 0.00 | 0.00 | 0.00 | 78 | 1021.1 |
| 20260507222024 | 2 | 270 | 3.2 | 6.4 | 0.00 | 0.00 | 0.00 | 77 | 1021.2 |
| 20260507221124 | 2 | 276 | 4.8 | 6.4 | 0.00 | 0.00 | 0.00 | 77 | 1021.0 |
| 20260507220224 | 2 | 268 | 3.2 | 6.4 | 0.00 | 0.00 | 0.00 | 76 | 1021.1 |
| 20260507215324 | 2 | 270 | 0.0 | 3.2 | 0.00 | 0.00 | 0.00 | 76 | 1020.9 |
| 20260507214424 | 2 | 284 | 0.0 | 3.2 | 0.00 | 0.00 | 0.00 | 76 | 1020.7 |
| 20260507213524 | 2 | 285 | 3.2 | 9.7 | 0.00 | 0.00 | 0.00 | 75 | 1020.7 |
| 20260507212837 | 2 | 310 | 0.0 | 9.7 | 0.00 | 0.00 | 0.00 | 76 | 1020.7 |
| 20260507211724 | 2 | 264 | 1.6 | 3.2 | 0.00 | 0.00 | 0.00 | 75 | 1020.7 |
| 20260507210824 | 2 | 0 | 0.0 | 0.0 | 0.00 | 0.00 | 0.00 | 74 | 1020.6 |
| 20260507205924 | 2 | 0 | 0.0 | 0.0 | 0.00 | 0.00 | 0.00 | 74 | 1020.2 |
| 20260507205024 | 2 | 0 | 0.0 | 0.0 | 0.00 | 0.00 | 0.00 | 73 | 1020.3 |
| 20260507204124 | 3 | 270 | 0.0 | 3.2 | 0.00 | 0.00 | 0.00 | 73 | 1020.3 |
| 20260507203435 | 3 | 270 | 0.0 | 3.2 | 0.00 | 0.00 | 0.00 | 74 | 1020.2 |
| 20260507202538 | 3 | 0 | 0.0 | 0.0 | 0.00 | 0.00 | 0.00 | 73 | 1020.1 |
| 20260507201635 | 3 | 0 | 0.0 | 0.0 | 0.00 | 0.00 | 0.00 | 72 | 1020.0 |
| 20260507200737 | 3 | 279 | 0.0 | 3.2 | 0.00 | 0.00 | 0.00 | 71 | 1019.9 |
| 20260507195624 | 3 | 292 | 0.0 | 3.2 | 0.00 | 0.00 | 0.00 | 70 | 1019.8 |
| 20260507194724 | 4 | 292 | 1.6 | 6.4 | 0.00 | 0.00 | 0.00 | 68 | 1019.8 |
| 20260507193824 | 4 | 292 | 3.2 | 6.4 | 0.00 | 0.00 | 0.00 | 67 | 1019.5 |
| 20260507192924 | 5 | 295 | 6.4 | 11.3 | 0.00 | 0.00 | 0.00 | 66 | 1019.6 |
| 20260507192024 | 5 | 308 | 8.0 | 11.3 | 0.00 | 0.00 | 0.00 | 65 | 1019.4 |
| 20260507191124 | 5 | 301 | 8.0 | 11.3 | 0.00 | 0.00 | 0.00 | 65 | 1019.6 |
| 20260507190224 | 5 | 306 | 6.4 | 9.7 | 0.00 | 0.00 | 0.00 | 64 | 1019.2 |
| 20260507185324 | 5 | 312 | 6.4 | 6.4 | 0.00 | 0.00 | 0.00 | 64 | 1019.2 |
| 20260507184424 | 5 | 310 | 8.0 | 11.3 | 0.00 | 0.00 | 0.00 | 63 | 1019.3 |
| 20260507183524 | 6 | 304 | 6.4 | 6.4 | 0.00 | 0.00 | 0.00 | 61 | 1019.1 |
| 20260507182624 | 6 | 317 | 8.0 | 17.7 | 0.00 | 0.00 | 0.00 | 60 | 1018.9 |
| 20260507181724 | 6 | 315 | 14.5 | 20.9 | 0.00 | 0.00 | 0.00 | 59 | 1018.7 |
| 20260507181033 | 6 | 314 | 11.3 | 20.9 | 0.00 | 0.00 | 0.00 | 58 | 1018.8 |
| 20260507175924 | 7 | 313 | 11.3 | 17.7 | 0.00 | 0.00 | 0.00 | 56 | 1018.4 |
| 20260507175024 | 7 | 305 | 12.9 | 17.7 | 0.00 | 0.00 | 0.00 | 54 | 1018.6 |
| 20260507174124 | 7 | 300 | 12.9 | 20.9 | 0.00 | 0.00 | 0.00 | 53 | 1018.3 |
| 20260507173224 | 7 | 311 | 17.7 | 22.5 | 0.00 | 0.00 | 0.00 | 51 | 1018.3 |
| 20260507172535 | 7 | 311 | 16.1 | 22.5 | 0.00 | 0.00 | 0.00 | 50 | 1018.2 |
| 20260507171637 | 7 | 311 | 17.7 | 24.1 | 0.00 | 0.00 | 0.00 | 50 | 1018.2 |
| 20260507170524 | 7 | 292 | 16.1 | 22.5 | 0.00 | 0.00 | 0.00 | 52 | 1017.9 |
| 20260507165624 | 8 | 305 | 17.7 | 24.1 | 0.00 | 0.00 | 0.00 | 49 | 1018.0 |
| 20260507164724 | 8 | 294 | 16.1 | 24.1 | 0.00 | 0.00 | 0.00 | 49 | 1017.9 |
| 20260507163824 | 8 | 310 | 14.5 | 20.9 | 0.00 | 0.00 | 0.00 | 48 | 1017.7 |
| 20260507162924 | 8 | 297 | 16.1 | 22.5 | 0.00 | 0.00 | 0.00 | 47 | 1017.6 |
| 20260507162024 | 8 | 293 | 19.3 | 24.1 | 0.00 | 0.00 | 0.00 | 45 | 1017.5 |
| 20260507161124 | 8 | 304 | 17.7 | 22.5 | 0.00 | 0.00 | 0.00 | 45 | 1017.4 |
| 20260507160224 | 8 | 312 | 19.3 | 22.5 | 0.00 | 0.00 | 0.00 | 45 | 1017.4 |
| 20260507155533 | 8 | 296 | 16.1 | 25.7 | 0.00 | 0.00 | 0.00 | 44 | 1017.2 |
| 20260507154424 | 8 | 309 | 19.3 | 25.7 | 0.00 | 0.00 | 0.00 | 45 | 1017.2 |
| 20260507153524 | 9 | 301 | 19.3 | 25.7 | 0.00 | 0.00 | 0.00 | 45 | 1017.2 |
| 20260507152623 | 9 | 312 | 17.7 | 25.7 | 0.00 | 0.00 | 0.00 | 43 | 1017.0 |
| 20260507151938 | 9 | 311 | 17.7 | 22.5 | 0.00 | 0.00 | 0.00 | 43 | 1017.0 |
| 20260507150824 | 9 | 297 | 22.5 | 27.4 | 0.00 | 0.00 | 0.00 | 41 | 1016.9 |
| 20260507145923 | 9 | 302 | 22.5 | 29.0 | 0.00 | 0.00 | 0.00 | 40 | 1016.5 |
| 20260507145024 | 10 | 302 | 20.9 | 27.4 | 0.00 | 0.00 | 0.00 | 41 | 1016.7 |
| 20260507144337 | 9 | 291 | 20.9 | 29.0 | 0.00 | 0.00 | 0.00 | 40 | 1016.5 |
| 20260507143224 | 9 | 295 | 22.5 | 25.7 | 0.00 | 0.00 | 0.00 | 46 | 1016.3 |
| 20260507142324 | 10 | 290 | 22.5 | 37.0 | 0.00 | 0.00 | 0.00 | 47 | 1016.3 |
| 20260507141634 | 10 | 294 | 22.5 | 37.0 | 0.00 | 0.00 | 0.00 | 47 | 1016.3 |
| 20260507140524 | 10 | 290 | 19.3 | 24.1 | 0.00 | 0.00 | 0.00 | 45 | 1016.4 |
| 20260507135623 | 10 | 272 | 17.7 | 24.1 | 0.00 | 0.00 | 0.00 | 43 | 1016.3 |
| 20260507134724 | 10 | 292 | 19.3 | 29.0 | 0.00 | 0.00 | 0.00 | 42 | 1016.0 |
| 20260507133824 | 10 | 263 | 19.3 | 27.4 | 0.00 | 0.00 | 0.00 | 47 | 1015.7 |
| 20260507132924 | 10 | 259 | 17.7 | 24.1 | 0.00 | 0.00 | 0.00 | 48 | 1015.9 |
| 20260507132024 | 9 | 241 | 19.3 | 25.7 | 0.00 | 0.00 | 0.00 | 48 | 1015.9 |
| 20260507131124 | 10 | 248 | 16.1 | 24.1 | 0.00 | 0.00 | 0.00 | 45 | 1015.6 |
| 20260507130224 | 10 | 272 | 16.1 | 22.5 | 0.00 | 0.00 | 0.00 | 49 | 1016.0 |
| 20260507125324 | 10 | 273 | 12.9 | 17.7 | 0.00 | 0.00 | 0.00 | 48 | 1016.0 |
| 20260507124637 | 9 | 261 | 14.5 | 25.7 | 0.00 | 0.00 | 0.00 | 51 | 1015.8 |
| 20260507123524 | 10 | 230 | 11.3 | 14.5 | 0.00 | 0.00 | 0.00 | 48 | 1015.9 |
| 20260507122624 | 10 | 229 | 11.3 | 17.7 | 0.00 | 0.00 | 0.00 | 48 | 1015.8 |
| 20260507121724 | 10 | 245 | 16.1 | 27.4 | 0.00 | 0.00 | 0.00 | 46 | 1015.8 |
| 20260507120824 | 9 | 263 | 12.9 | 20.9 | 0.00 | 0.00 | 0.00 | 49 | 1015.8 |
| 20260507115924 | 9 | 263 | 17.7 | 25.7 | 0.00 | 0.00 | 0.00 | 47 | 1016.0 |
| 20260507115024 | 9 | 266 | 17.7 | 27.4 | 0.00 | 0.00 | 0.00 | 46 | 1015.9 |
| 20260507114124 | 10 | 246 | 16.1 | 22.5 | 0.00 | 0.00 | 0.00 | 44 | 1015.7 |
| 20260507113224 | 10 | 229 | 14.5 | 20.9 | 0.00 | 0.00 | 0.00 | 42 | 1015.8 |
| 20260507112324 | 10 | 249 | 12.9 | 32.2 | 0.00 | 0.00 | 0.00 | 41 | 1015.9 |
| 20260507111424 | 9 | 259 | 12.9 | 32.2 | 0.00 | 0.00 | 0.00 | 38 | 1016.1 |
| 20260507110524 | 10 | 259 | 14.5 | 24.1 | 0.00 | 0.00 | 0.00 | 35 | 1015.9 |
| 20260507105623 | 9 | 228 | 11.3 | 14.5 | 0.00 | 0.00 | 0.00 | 36 | 1015.9 |
| 20260507104724 | 9 | 259 | 12.9 | 20.9 | 0.00 | 0.00 | 0.00 | 36 | 1015.6 |
| 20260507103824 | 9 | 227 | 9.7 | 20.9 | 0.00 | 0.00 | 0.00 | 35 | 1015.8 |
| 20260507102924 | 10 | 218 | 8.0 | 11.3 | 0.00 | 0.00 | 0.00 | 35 | 1015.6 |